When you browse on this site, cookies collect data to enhance your experience and personalize the content and advertising you see.
Visit our Privacy Policy to learn more. By continuing to use the site, you agree to this use of cookies and data.
  • In Portugal
  • List of Countries
  • For 7 days
  • Water Temperature
  • Weather Map
  • Weather Widgets
  • user-avatar
    Login

    Hourly Weather Mramorskoe

    Today, 5 June, Friday

    Time Temperature Precipitation Wind Pressure Humidity
    00:00 +7°C° 0 mm 1 mps 735 mmHg 86%
    01:00 +6°C° 0 mm 1 mps 735 mmHg 88%
    02:00 +6°C° 0 mm 1 mps 736 mmHg 88%
    03:00 +6°C° 0 mm 1 mps 736 mmHg 87%
    04:00 +6°C° 0 mm 1 mps 736 mmHg 84%
    05:00 +8°C° 0 mm 1 mps 736 mmHg 74%
    06:00 +10°C° 0 mm 1 mps 736 mmHg 64%
    07:00 +13°C° 0 mm 1 mps 737 mmHg 54%
    08:00 +14°C° 0 mm 2 mps 737 mmHg 47%
    09:00 +16°C° 0 mm 2 mps 737 mmHg 41%
    10:00 +18°C° 0 mm 2 mps 737 mmHg 37%
    11:00 +19°C° 0 mm 2 mps 737 mmHg 35%
    12:00 +22°C° 0 mm 1 mps 737 mmHg 34%
    13:00 +23°C° 0 mm 1 mps 737 mmHg 32%
    14:00 +23°C° 0 mm 1 mps 737 mmHg 32%
    15:00 +23°C° 0 mm 1 mps 737 mmHg 33%
    16:00 +23°C° 0 mm 1 mps 737 mmHg 33%
    17:00 +21°C° 0 mm 2 mps 736 mmHg 42%
    18:00 +19°C° 0 mm 2 mps 736 mmHg 50%
    19:00 +17°C° 0 mm 2 mps 736 mmHg 59%
    20:00 +15°C° 0 mm 2 mps 736 mmHg 66%
    21:00 +13°C° 0 mm 2 mps 736 mmHg 73%
    22:00 +10°C° 0 mm 2 mps 736 mmHg 80%
    23:00 +11°C° 0 mm 1 mps 736 mmHg 81%

    Tomorrow, 6 June, Saturday

    Time Temperature Precipitation Wind Pressure Humidity
    00:00 +10°C° 0 mm 1 mps 736 mmHg 83%
    01:00 +10°C° 0 mm 1 mps 736 mmHg 85%
    02:00 +10°C° 0 mm 1 mps 736 mmHg 85%
    03:00 +10°C° 0 mm 1 mps 736 mmHg 86%
    04:00 +9°C° 0 mm 1 mps 737 mmHg 86%
    05:00 +12°C° 0 mm 1 mps 737 mmHg 77%
    06:00 +14°C° 0 mm 1 mps 737 mmHg 68%
    07:00 +18°C° 0 mm 1 mps 737 mmHg 59%
    08:00 +19°C° 0 mm 1 mps 737 mmHg 52%
    09:00 +20°C° 0 mm 2 mps 737 mmHg 44%
    10:00 +23°C° 0 mm 2 mps 737 mmHg 37%
    11:00 +23°C° 0 mm 2 mps 737 mmHg 34%
    12:00 +24°C° 0 mm 2 mps 737 mmHg 32%
    13:00 +25°C° 0 mm 2 mps 736 mmHg 29%
    14:00 +25°C° 0 mm 2 mps 736 mmHg 30%
    15:00 +25°C° 0 mm 2 mps 736 mmHg 30%
    16:00 +25°C° 0 mm 3 mps 736 mmHg 31%
    17:00 +24°C° 0 mm 2 mps 736 mmHg 39%
    18:00 +21°C° 0 mm 2 mps 735 mmHg 48%
    19:00 +20°C° 0 mm 2 mps 735 mmHg 56%
    20:00 +18°C° 0 mm 2 mps 735 mmHg 62%
    21:00 +16°C° 0 mm 2 mps 736 mmHg 67%
    22:00 +14°C° 0 mm 2 mps 736 mmHg 73%
    23:00 +13°C° 0 mm 2 mps 736 mmHg 72%

    Day after tomorrow, 7 June, Sunday

    Time Temperature Precipitation Wind Pressure Humidity
    00:00 +12°C° 0 mm 2 mps 736 mmHg 72%
    01:00 +12°C° 0 mm 1 mps 736 mmHg 71%
    02:00 +11°C° 0 mm 1 mps 736 mmHg 71%
    03:00 +11°C° 0 mm 1 mps 736 mmHg 71%
    04:00 +11°C° 0 mm 1 mps 737 mmHg 71%
    05:00 +14°C° 0 mm 1 mps 737 mmHg 64%
    06:00 +16°C° 0 mm 1 mps 737 mmHg 58%
    07:00 +20°C° 0 mm 1 mps 737 mmHg 51%
    08:00 +22°C° 0 mm 1 mps 737 mmHg 44%
    09:00 +23°C° 0 mm 1 mps 738 mmHg 38%
    10:00 +25°C° 0 mm 1 mps 738 mmHg 31%
    11:00 +26°C° 0 mm 2 mps 738 mmHg 29%
    12:00 +26°C° 0 mm 2 mps 737 mmHg 27%
    13:00 +27°C° 0 mm 2 mps 737 mmHg 26%
    14:00 +27°C° 0 mm 2 mps 737 mmHg 27%
    15:00 +27°C° 0 mm 2 mps 737 mmHg 28%
    16:00 +26°C° 0 mm 2 mps 737 mmHg 30%
    17:00 +25°C° 0 mm 2 mps 737 mmHg 38%
    18:00 +23°C° 0 mm 2 mps 737 mmHg 46%
    19:00 +21°C° 0 mm 2 mps 736 mmHg 54%
    20:00 +19°C° 0 mm 2 mps 737 mmHg 59%
    21:00 +18°C° 0 mm 1 mps 737 mmHg 64%
    22:00 +15°C° 0 mm 1 mps 737 mmHg 69%
    23:00 +14°C° 0 mm 1 mps 737 mmHg 70%

    8 June, Monday

    Time Temperature Precipitation Wind Pressure Humidity
    00:00 +14°C° 0 mm 1 mps 737 mmHg 71%
    01:00 +12°C° 0 mm 0 mps 737 mmHg 72%
    02:00 +12°C° 0 mm 0 mps 737 mmHg 72%
    03:00 +12°C° 0 mm 0 mps 737 mmHg 73%
    04:00 +12°C° 0 mm 0 mps 737 mmHg 73%
    05:00 +14°C° 0 mm 0 mps 738 mmHg 66%
    06:00 +19°C° 0 mm 1 mps 738 mmHg 59%
    07:00 +21°C° 0 mm 1 mps 738 mmHg 52%
    08:00 +23°C° 0 mm 1 mps 738 mmHg 47%
    09:00 +25°C° 0 mm 1 mps 739 mmHg 41%
    10:00 +27°C° 0 mm 1 mps 739 mmHg 36%
    11:00 +28°C° 0 mm 1 mps 739 mmHg 34%
    12:00 +28°C° 0 mm 1 mps 739 mmHg 31%
    13:00 +29°C° 0 mm 1 mps 739 mmHg 29%
    14:00 +29°C° 0 mm 2 mps 738 mmHg 30%
    15:00 +28°C° 0 mm 2 mps 738 mmHg 31%
    16:00 +28°C° 0 mm 2 mps 738 mmHg 32%
    17:00 +27°C° 0 mm 2 mps 738 mmHg 40%
    18:00 +25°C° 0 mm 2 mps 737 mmHg 48%
    19:00 +24°C° 0 mm 2 mps 737 mmHg 57%
    20:00 +21°C° 0 mm 2 mps 737 mmHg 62%
    21:00 +19°C° 0 mm 2 mps 737 mmHg 68%
    22:00 +17°C° 0 mm 2 mps 737 mmHg 73%
    23:00 +16°C° 0 mm 2 mps 738 mmHg 76%

    9 June, Tuesday

    Time Temperature Precipitation Wind Pressure Humidity
    00:00 +16°C° 0 mm 2 mps 738 mmHg 78%
    01:00 +15°C° 0 mm 2 mps 738 mmHg 81%
    02:00 +15°C° 0 mm 2 mps 738 mmHg 81%
    03:00 +15°C° 0 mm 2 mps 738 mmHg 82%
    04:00 +15°C° 0 mm 2 mps 738 mmHg 83%
    05:00 +17°C° 0 mm 2 mps 738 mmHg 77%
    06:00 +19°C° 0 mm 3 mps 738 mmHg 72%
    07:00 +20°C° 0 mm 3 mps 739 mmHg 67%
    08:00 +22°C° 0 mm 3 mps 739 mmHg 60%
    09:00 +25°C° 0 mm 3 mps 739 mmHg 53%
    10:00 +27°C° 0 mm 3 mps 739 mmHg 47%
    11:00 +27°C° 0 mm 3 mps 739 mmHg 45%
    12:00 +28°C° 0 mm 3 mps 739 mmHg 44%
    13:00 +28°C° 0 mm 2 mps 739 mmHg 42%
    14:00 +28°C° 0 mm 2 mps 738 mmHg 43%
    15:00 +28°C° 0 mm 2 mps 738 mmHg 44%
    16:00 +28°C° 0 mm 2 mps 738 mmHg 45%
    17:00 +27°C° 0 mm 2 mps 738 mmHg 51%
    18:00 +26°C° 0 mm 2 mps 738 mmHg 58%
    19:00 +25°C° 0 mm 1 mps 737 mmHg 64%
    20:00 +23°C° 0 mm 2 mps 737 mmHg 68%
    21:00 +21°C° 0 mm 2 mps 737 mmHg 73%
    22:00 +20°C° 0 mm 2 mps 737 mmHg 77%
    23:00 +19°C° 0 mm 2 mps 737 mmHg 78%

    10 June, Wednesday

    Time Temperature Precipitation Wind Pressure Humidity
    00:00 +19°C° 0 mm 2 mps 737 mmHg 79%
    01:00 +18°C° 0 mm 2 mps 737 mmHg 80%
    02:00 +18°C° 0 mm 2 mps 738 mmHg 81%
    03:00 +17°C° 0 mm 2 mps 738 mmHg 81%
    04:00 +17°C° 0 mm 2 mps 738 mmHg 82%
    05:00 +19°C° 0 mm 2 mps 738 mmHg 76%
    06:00 +21°C° 0 mm 2 mps 738 mmHg 69%
    07:00 +24°C° 0 mm 2 mps 738 mmHg 63%
    08:00 +25°C° 0 mm 3 mps 738 mmHg 56%
    09:00 +26°C° 0 mm 3 mps 738 mmHg 50%
    10:00 +28°C° 0 mm 3 mps 738 mmHg 44%
    11:00 +28°C° 0 mm 3 mps 738 mmHg 42%
    12:00 +29°C° 0 mm 3 mps 738 mmHg 40%
    13:00 +29°C° 0 mm 4 mps 738 mmHg 38%
    14:00 +29°C° 0 mm 4 mps 738 mmHg 39%
    15:00 +29°C° 0 mm 4 mps 737 mmHg 39%
    16:00 +29°C° 0 mm 3 mps 737 mmHg 40%
    17:00 +28°C° 0 mm 3 mps 737 mmHg 45%
    18:00 +26°C° 0 mm 3 mps 737 mmHg 51%
    19:00 +25°C° 0 mm 2 mps 737 mmHg 56%
    20:00 +23°C° 0 mm 2 mps 737 mmHg 62%
    21:00 +20°C° 0 mm 2 mps 737 mmHg 69%
    22:00 +18°C° 0 mm 2 mps 737 mmHg 75%
    23:00 +18°C° 0 mm 2 mps 737 mmHg 77%
    Show more